Location: Davayat
(45.9471°N, 3.1105°E)
Time: 22:21:30
(UTC+00:00)

Meteor 2-12 Rocket - Pass Details

Date: 26 April 2021
Orbit: 935 x 958 km, 82.5° (Epoch: 16 May)

Event Time Altitude Azimuth Distance (km) Brightness Sun altitude
Rises 21:58:00 0° 0° (N) 3,627 8.4 -25.5°
Reaches altitude 10° 22:01:08 10° 16° (NNE) 2,673 7.4 -25.8°
Maximum altitude 22:05:46 22° 66° (ENE) 1,929 6.0 -26.2°
Enters shadow 22:06:42 21° 78° (ENE) 1,962 5.9 -26.2°
